When you browse on this site, cookies collect data to enhance your experience and personalize the content and advertising you see.
Visit our Privacy Policy to learn more. By continuing to use the site, you agree to this use of cookies and data.
  • In Latvia
  • List of Countries
  • For 7 days
  • Water Temperature
  • Satellite Maps
  • Weather Map
  • Weather Widgets
  • user-avatar
    Login

    Hourly Weather Sankt Polten

    Today, 23 March, Saturday

    Time Temperature Precipitation Wind Pressure Humidity
    00:00 +9°C° 0 mm 1 mps 745 mmHg 80%
    01:00 +8°C° 0 mm 1 mps 745 mmHg 82%
    02:00 +8°C° 0 mm 1 mps 744 mmHg 83%
    03:00 +8°C° 0 mm 1 mps 744 mmHg 83%
    04:00 +7°C° 0 mm 1 mps 744 mmHg 84%
    05:00 +8°C° 0 mm 1 mps 744 mmHg 83%
    06:00 +8°C° 0 mm 1 mps 744 mmHg 82%
    07:00 +8°C° 0 mm 1 mps 744 mmHg 80%
    08:00 +10°C° 0 mm 0 mps 744 mmHg 71%
    09:00 +13°C° 0 mm 0 mps 744 mmHg 62%
    10:00 +15°C° 0 mm 0 mps 744 mmHg 53%
    11:00 +17°C° 0 mm 0 mps 744 mmHg 50%
    12:00 +18°C° 0 mm 0 mps 743 mmHg 46%
    13:00 +21°C° 0 mm 1 mps 743 mmHg 43%
    14:00 +21°C° 0 mm 1 mps 743 mmHg 44%
    15:00 +20°C° 0 mm 1 mps 742 mmHg 44%
    16:00 +20°C° 0 mm 1 mps 742 mmHg 45%
    17:00 +18°C° 0 mm 1 mps 742 mmHg 53%
    18:00 +13°C° 0 mm 0 mps 742 mmHg 62%
    19:00 +11°C° 0 mm 0 mps 742 mmHg 70%
    20:00 +11°C° 0 mm 0 mps 742 mmHg 72%
    21:00 +11°C° 0 mm 1 mps 742 mmHg 74%
    22:00 +11°C° 0 mm 1 mps 743 mmHg 76%
    23:00 +10°C° 0 mm 1 mps 743 mmHg 78%

    Tomorrow, 24 March, Sunday

    Time Temperature Precipitation Wind Pressure Humidity
    00:00 +10°C° 0 mm 1 mps 743 mmHg 79%
    01:00 +10°C° 0 mm 1 mps 742 mmHg 80%
    02:00 +9°C° 0 mm 1 mps 742 mmHg 81%
    03:00 +9°C° 0 mm 1 mps 742 mmHg 82%
    04:00 +9°C° 0 mm 1 mps 742 mmHg 82%
    05:00 +9°C° 0 mm 1 mps 742 mmHg 81%
    06:00 +9°C° 0 mm 1 mps 742 mmHg 80%
    07:00 +10°C° 0 mm 1 mps 741 mmHg 79%
    08:00 +12°C° 0 mm 1 mps 741 mmHg 71%
    09:00 +15°C° 0 mm 1 mps 741 mmHg 63%
    10:00 +16°C° 0 mm 0 mps 741 mmHg 55%
    11:00 +19°C° 0 mm 1 mps 741 mmHg 52%
    12:00 +20°C° 0 mm 1 mps 740 mmHg 49%
    13:00 +21°C° 0 mm 1 mps 740 mmHg 46%
    14:00 +21°C° 0 mm 1 mps 739 mmHg 47%
    15:00 +20°C° 0 mm 1 mps 739 mmHg 48%
    16:00 +20°C° 0 mm 1 mps 738 mmHg 49%
    17:00 +18°C° 0 mm 1 mps 738 mmHg 57%
    18:00 +15°C° 0 mm 1 mps 738 mmHg 66%
    19:00 +13°C° 0 mm 2 mps 738 mmHg 74%
    20:00 +12°C° 0 mm 1 mps 738 mmHg 78%
    21:00 +12°C° 0 mm 1 mps 738 mmHg 82%
    22:00 +11°C° 0 mm 1 mps 739 mmHg 86%
    23:00 +11°C° 0 mm 1 mps 738 mmHg 88%

    Day after tomorrow, 25 March, Monday

    Time Temperature Precipitation Wind Pressure Humidity
    00:00 +10°C° 0 mm 1 mps 738 mmHg 90%
    01:00 +10°C° 0 mm 1 mps 738 mmHg 92%
    02:00 +10°C° 0.1 mm 1 mps 738 mmHg 91%
    03:00 +10°C° 0.1 mm 1 mps 738 mmHg 90%
    04:00 +10°C° 0.1 mm 1 mps 738 mmHg 90%
    05:00 +9°C° 0.1 mm 2 mps 738 mmHg 89%
    06:00 +8°C° 0.1 mm 2 mps 738 mmHg 89%
    07:00 +8°C° 0.1 mm 2 mps 738 mmHg 89%
    08:00 +9°C° 0.2 mm 2 mps 738 mmHg 86%
    09:00 +9°C° 0.2 mm 3 mps 737 mmHg 82%
    10:00 +8°C° 0.2 mm 4 mps 737 mmHg 78%
    11:00 +9°C° 0.1 mm 5 mps 737 mmHg 71%
    12:00 +9°C° 0.1 mm 6 mps 737 mmHg 63%
    13:00 +10°C° 0.1 mm 7 mps 737 mmHg 55%
    14:00 +9°C° 0 mm 7 mps 737 mmHg 54%
    15:00 +9°C° 0 mm 7 mps 737 mmHg 52%
    16:00 +8°C° 0 mm 7 mps 737 mmHg 51%
    17:00 +7°C° 0.2 mm 6 mps 737 mmHg 56%
    18:00 +6°C° 0.2 mm 5 mps 738 mmHg 61%
    19:00 +5°C° 0.2 mm 5 mps 739 mmHg 65%
    20:00 +3°C° 0 mm 5 mps 739 mmHg 66%
    21:00 +2°C° 0 mm 5 mps 740 mmHg 67%
    22:00 +2°C° 0 mm 5 mps 740 mmHg 67%
    23:00 +1°C° 0 mm 5 mps 740 mmHg 70%

    26 March, Tuesday

    Time Temperature Precipitation Wind Pressure Humidity
    00:00 +1°C° 0 mm 5 mps 741 mmHg 73%
    01:00 +1°C° 0 mm 5 mps 741 mmHg 75%
    02:00 +1°C° 0.1 mm 5 mps 741 mmHg 76%
    03:00 +1°C° 0.1 mm 4 mps 742 mmHg 77%
    04:00 +1°C° 0.1 mm 4 mps 742 mmHg 78%
    05:00 +1°C° 0.1 mm 4 mps 743 mmHg 78%
    06:00 +1°C° 0.1 mm 4 mps 743 mmHg 77%
    07:00 +1°C° 0.1 mm 4 mps 744 mmHg 77%
    08:00 +3°C° 0.1 mm 4 mps 744 mmHg 73%
    09:00 +3°C° 0.1 mm 5 mps 745 mmHg 69%
    10:00 +3°C° 0.1 mm 5 mps 745 mmHg 65%
    11:00 +5°C° 0.1 mm 5 mps 745 mmHg 60%
    12:00 +6°C° 0.1 mm 5 mps 745 mmHg 55%
    13:00 +7°C° 0.1 mm 5 mps 745 mmHg 51%
    14:00 +7°C° 0 mm 4 mps 744 mmHg 49%
    15:00 +7°C° 0 mm 4 mps 744 mmHg 48%
    16:00 +8°C° 0 mm 4 mps 744 mmHg 47%
    17:00 +7°C° 0 mm 3 mps 744 mmHg 55%
    18:00 +5°C° 0 mm 3 mps 744 mmHg 62%
    19:00 +4°C° 0 mm 2 mps 745 mmHg 70%
    20:00 +4°C° 0 mm 2 mps 745 mmHg 71%
    21:00 +4°C° 0 mm 2 mps 745 mmHg 72%
    22:00 +3°C° 0 mm 3 mps 746 mmHg 74%
    23:00 +3°C° 0 mm 2 mps 746 mmHg 75%

    27 March, Wednesday

    Time Temperature Precipitation Wind Pressure Humidity
    00:00 +3°C° 0 mm 2 mps 746 mmHg 76%
    01:00 +3°C° 0 mm 2 mps 746 mmHg 77%
    02:00 +2°C° 0 mm 2 mps 746 mmHg 78%
    03:00 +2°C° 0 mm 2 mps 746 mmHg 79%
    04:00 +2°C° 0 mm 2 mps 746 mmHg 80%
    05:00 +2°C° 0 mm 2 mps 746 mmHg 79%
    06:00 +2°C° 0 mm 2 mps 746 mmHg 78%
    07:00 +3°C° 0 mm 2 mps 746 mmHg 77%
    08:00 +3°C° 0 mm 3 mps 746 mmHg 72%
    09:00 +5°C° 0 mm 4 mps 746 mmHg 66%
    10:00 +6°C° 0 mm 4 mps 746 mmHg 61%
    11:00 +7°C° 0 mm 4 mps 745 mmHg 60%
    12:00 +7°C° 0 mm 4 mps 745 mmHg 59%
    13:00 +8°C° 0 mm 4 mps 745 mmHg 58%
    14:00 +8°C° 0.1 mm 4 mps 745 mmHg 60%
    15:00 +8°C° 0.1 mm 4 mps 744 mmHg 62%
    16:00 +8°C° 0.1 mm 4 mps 744 mmHg 65%
    17:00 +7°C° 0.1 mm 4 mps 744 mmHg 70%
    18:00 +7°C° 0.1 mm 3 mps 745 mmHg 76%
    19:00 +5°C° 0.1 mm 3 mps 745 mmHg 82%
    20:00 +5°C° 0.2 mm 3 mps 745 mmHg 84%
    21:00 +6°C° 0.2 mm 2 mps 745 mmHg 86%
    22:00 +5°C° 0.2 mm 2 mps 745 mmHg 89%
    23:00 +5°C° 0.3 mm 2 mps 745 mmHg 90%

    28 March, Thursday

    Time Temperature Precipitation Wind Pressure Humidity
    00:00 +5°C° 0.3 mm 2 mps 745 mmHg 91%
    01:00 +5°C° 0.3 mm 2 mps 745 mmHg 93%
    02:00 +5°C° 0.6 mm 2 mps 745 mmHg 93%
    03:00 +5°C° 0.6 mm 2 mps 745 mmHg 94%
    04:00 +5°C° 0.6 mm 2 mps 745 mmHg 94%
    05:00 +5°C° 0.8 mm 2 mps 745 mmHg 94%
    06:00 +6°C° 0.8 mm 1 mps 745 mmHg 94%
    07:00 +6°C° 0.8 mm 1 mps 746 mmHg 94%
    08:00 +7°C° 0.1 mm 1 mps 746 mmHg 90%
    09:00 +8°C° 0.1 mm 1 mps 746 mmHg 87%
    10:00 +9°C° 0.1 mm 1 mps 746 mmHg 83%
    11:00 +10°C° 0.1 mm 1 mps 746 mmHg 81%
    12:00 +10°C° 0.1 mm 1 mps 746 mmHg 78%
    13:00 +11°C° 0.1 mm 1 mps 746 mmHg 75%
    14:00 +11°C° 0.1 mm 1 mps 746 mmHg 73%
    15:00 +11°C° 0.1 mm 1 mps 746 mmHg 71%
    16:00 +12°C° 0.1 mm 1 mps 746 mmHg 69%
    17:00 +9°C° 0 mm 0 mps 746 mmHg 75%
    18:00 +8°C° 0 mm 0 mps 746 mmHg 82%
    19:00 +6°C° 0 mm 0 mps 747 mmHg 88%
    20:00 +6°C° 0 mm 0 mps 747 mmHg 89%
    21:00 +5°C° 0 mm 0 mps 748 mmHg 90%
    22:00 +5°C° 0 mm 0 mps 748 mmHg 91%
    23:00 +4°C° 0 mm 0 mps 748 mmHg 91%
    Show more